Other Public Products
Issued by NWS Grand Forks, ND

Home | Current Version | Previous Version | Text Only | Print | Product List | Glossary Off
Versions: 1 2 3 4 5 6 7 8 9 10 11 12 13 14 15 16 17 18 19 20 21 22 23 24 25 26 27 28 29 30 31 32 33 34 35 36 37 38 39 40 41 42 43 44 45 46 47 48 49 50

000
FPUS83 KFGF 230010
OPUFGF
PRAIRIE TO PINES WEATHER ROUNDUP
NATIONAL WEATHER SERVICE EASTERN NORTH DAKOTA/GRAND FORKS ND
700 PM CDT SAT APR 22 2017

 **SATELLITE DATA USED TO AUGMENT SKY COVER AT AUTOMATED STATIONS**
 *****  WEATHER ACROSS EASTERN NORTH DAKOTA  *****

CITY           SKY/WX    TMP DP  RH WIND       PRES   REMARKS
GRAND FORKS    PTSUNNY   40  31  70 N21G31    30.19S
6HR MIN TEMP:  40; 6HR MAX TEMP:  55;

GRAND FORKS AF CLOUDY    38  31  74 NE20      30.20R
GRAND CITY NWS NOT AVBL
BUXTON         NOT AVBL
DEVILS LAKE    LGT RAIN  36  27  69 NE20      30.21R
6HR MIN TEMP:  36; 6HR MAX TEMP:  49; 6HR PCP: TRACE;

FARGO          FAIR      61  42  49 N22       30.07S
6HR MIN TEMP:  61; 6HR MAX TEMP:  71;

WAHPETON ARPT  FAIR      66  34  30 SW16      30.05F
$$

 *****  WEATHER ACROSS CENTRAL AND WESTERN NORTH DAKOTA  *****

CITY           SKY/WX    TMP DP  RH WIND       PRES   REMARKS
JAMESTOWN      FAIR      54  45  71 NE21G29   30.08R
6HR MIN TEMP:  54; 6HR MAX TEMP:  68;

BISMARCK       CLOUDY    63  44  50 NE17      30.06S
6HR MIN TEMP:  63; 6HR MAX TEMP:  71;

MINOT          CLOUDY    41  35  79 N17       30.18S
6HR MIN TEMP:  41; 6HR MAX TEMP:  54; 6HR PCP: TRACE;

MINOT AFB      LGT RAIN  39  32  75 NE15      30.18F
6HR MIN TEMP:  39; 6HR MAX TEMP:  50; 6HR PCP:  0.01;

GARRISON         N/A     47  37  68 NE16G25   30.12S
6HR MIN TEMP:  47; 6HR MAX TEMP:  59;

WILLISTON      CLOUDY    48  37  65 NE12      30.13F
6HR MIN TEMP:  48; 6HR MAX TEMP:  54;

DICKINSON      CLOUDY    59  38  45 W12       30.05F
6HR MIN TEMP:  57; 6HR MAX TEMP:  63;

HETTINGER      CLOUDY    63  39  41 W10       30.08F
6HR MIN TEMP:  60; 6HR MAX TEMP:  65;

$$

 *****  OTHER OBSERVATIONS NORTHEAST NORTH DAKOTA  *****

CITY           SKY/WX    TMP DP  RH WIND       PRES   REMARKS
WALHALLA       NOT AVBL
LANGDON        CLOUDY    34  30  86 N18       30.22S WCI  23
CAVALIER       FAIR      37  28  70 N14G21    30.24R
GRAFTON        MIX PCPN  34  30  86 N18G25    30.25R WCI  23
CANDO          NOT AVBL
FORT TOTTEN      N/A     38  29  70 NE8       29.95S
ROLLA          MOCLDY    34  28  80 NE16      30.23S WCI  23
RUGBY          NOT AVBL
 ***** THE ABOVE OBSERVATIONS ARE NON NWS ARE NOT QUALITY
        CONTROLLED AND MAY MIS-REPORT RAIN FOR SNOW...
$$

 *****  OTHER OBSERVATIONS SOUTHEAST NORTH DAKOTA *****

CITY           SKY/WX    TMP DP  RH WIND       PRES   REMARKS
COOPERSTOWN    CLOUDY    41  37  87 N22       30.16R
VALLEY CITY    FAIR      50  43  76 NE17G26   30.11R
OAKES          NOT AVBL
GWINNER        CLEAR     68  34  28 MISG      30.05F
SHEYENNE NWR     N/A     69  30  23 W13       29.95
BUFFALO        NOT AVBL
WYNDMERE         N/A     70  34  26 W16         N/A
 ***** THE ABOVE OBSERVATIONS ARE NON NWS ARE NOT QUALITY
       CONTROLLED AND MAY MIS-REPORT RAIN FOR SNOW...
$$

  *****  WEATHER ACROSS NORTHERN MINNESOTA  *****

CITY           SKY/WX    TMP DP  RH WIND       PRES   REMARKS
FLAG ISLAND    FAIR      39  28  65 VRB16     30.17S
WARROAD        FAIR      37  34  87 NW8       30.18F
ROSEAU         FAIR      36  30  80 N12       30.19F
HALLOCK        PTSUNNY   36  28  75 N16       30.22S
THF RVR FALLS  PTSUNNY   40  33  76 N22       30.17
6HR MIN TEMP:  40; 6HR MAX TEMP:  54;

HALSTAD          N/A     51  37  59 N24         N/A
FOSSTON        FAIR      54  37  54 N21       30.11S
BAUDETTE       CLOUDY    38  36  92 NW9       30.16S
6HR MIN TEMP:  36; 6HR MAX TEMP:  46; 6HR PCP:  0.15;

WASKISH        CLOUDY    43  36  75 N13       30.14S
CROOKSTON      FAIR      43  36  75 N21G29    30.16S
$$
  *****  WEATHER ACROSS CENTRAL AND WEST MINNESOTA  *****

CITY           SKY/WX    TMP DP  RH WIND       PRES   REMARKS
BEMIDJI        PTSUNNY   54  40  57 N9        30.09R
PARK RAPIDS    PTSUNNY   65  36  34 W12       30.05F
6HR MIN TEMP:  63; 6HR MAX TEMP:  69;

WADENA         FAIR      64  39  39 SW10G17   30.07F
DETROIT LAKES  FAIR      61  43  51 NW10      30.08S
MOORHEAD       FAIR      63  43  48 N13       30.07F
FERGUS FALLS   FAIR      66  39  37 W10       30.05F
ELBOW LAKE     FAIR      65  38  35 SW10      30.08F
6HR MIN TEMP:  62; 6HR MAX TEMP:  67;

MORRIS MN      FAIR      66  37  34 W13       30.10F
STAPLES        FAIR      63  36  36 W12       30.08F
WHEATON        FAIR      68  34  28 SW12      30.09F
$$
  *****  WEATHER ELSEWHERE ACROSS MINNESOTA  *****

CITY           SKY/WX    TMP DP  RH WIND       PRES   REMARKS
DULUTH         FAIR      62  36  37 W15       30.03F
6HR MIN TEMP:  62; 6HR MAX TEMP:  68;

INTRNTL FALLS  LGT RAIN  41  37  86 NW8       30.14R FOG
6HR MIN TEMP:  41; 6HR MAX TEMP:  56; 6HR PCP: TRACE;

ELY            FAIR      52  36  54 NW8G18    30.07R
CLOQUET        FAIR      64  28  25 W12G20    30.05S
BRAINERD       FAIR      64  35  34 W12       30.08F
6HR MIN TEMP:  63; 6HR MAX TEMP:  66;

HIBBING        FAIR      57  39  51 NW13      30.04R
6HR MIN TEMP:  57; 6HR MAX TEMP:  65;

ALEXANDRIA     FAIR      65  36  34 W13       30.10F
6HR MIN TEMP:  62; 6HR MAX TEMP:  67;

SAINT CLOUD    FAIR      66  36  32 W15       30.10F
6HR MIN TEMP:  63; 6HR MAX TEMP:  68;

MINNEAPOLIS    FAIR      67  34  29 W12       30.12F
6HR MIN TEMP:  65; 6HR MAX TEMP:  69;

$$

  *****  WEATHER ACROSS SOUTH DAKOTA  *****

CITY           SKY/WX    TMP DP  RH WIND       PRES   REMARKS
SIOUX FALLS    FAIR      66  37  34 SW5       30.16F
6HR MIN TEMP:  62; 6HR MAX TEMP:  69;

BROOKINGS      FAIR      64  35  34 W13       30.16F
WATERTOWN      FAIR      64  35  34 SW9       30.13F
6HR MIN TEMP:  60; 6HR MAX TEMP:  66;

HURON          FAIR      66  33  29 SW10      30.14F
6HR MIN TEMP:  63; 6HR MAX TEMP:  69;

SISSETON         N/A     68  36  30 W16       30.07F
ABERDEEN       FAIR      68  24  19 SW15      30.08F
6HR MIN TEMP:  64; 6HR MAX TEMP:  70;

MITCHELL       FAIR      66  37  34 W8        30.17F
PIERRE         FAIR      67  34  29 SW14      30.09F
6HR MIN TEMP:  61; 6HR MAX TEMP:  68;

MOBRIDGE       FAIR      70  36  28 SW14      30.04F
RAPID CITY     FAIR      64  32  30 S18       30.08F
6HR MIN TEMP:  58; 6HR MAX TEMP:  67;

$$

  *****  SOME WEATHER IN NEARBY STATES *****

CITY           SKY/WX    TMP DP  RH WIND       PRES   REMARKS
GLASGOW MT     CLOUDY    51  40  65 E14       30.06F
6HR MIN TEMP:  45; 6HR MAX TEMP:  51;

GREAT FALLS MT FAIR      61  29  29 S9        29.90F
6HR MIN TEMP:  52; 6HR MAX TEMP:  62;

CHEYENNE WY    FAIR      50  26  39 S12       30.21F
6HR MIN TEMP:  42; 6HR MAX TEMP:  53;

SCOTTSBLUFF NE FAIR      62  27  26 SW12G18   30.17F
6HR MIN TEMP:  56; 6HR MAX TEMP:  64;

OMAHA NE       FAIR      67  31  26 NE8       30.18S
6HR MIN TEMP:  63; 6HR MAX TEMP:  69;

DES MOINES IA  FAIR      66  26  22 N10       30.16S
6HR MIN TEMP:  64; 6HR MAX TEMP:  68;

DAVENPORT IA   FAIR      61  30  31 NE15      30.15S
6HR MIN TEMP:  58; 6HR MAX TEMP:  64;

CHICAGO IL     FAIR      57  20  23 N9        30.15F
6HR MIN TEMP:  56; 6HR MAX TEMP:  60;

EAU CLAIRE WI  FAIR      65  31  28 W9        30.11F
6HR MIN TEMP:  62; 6HR MAX TEMP:  67;

LA CROSSE WI   FAIR      68  24  19 CALM      30.13F
6HR MIN TEMP:  63; 6HR MAX TEMP:  69;

$$

  *****  SOME NATIONAL WEATHER *****

CITY           SKY/WX    TMP DP  RH WIND       PRES   REMARKS
LA GUARDIA NY  CLOUDY    55  47  74 NW3       29.96R



USA.gov is the U.S. government's official web portal to all federal, state and local government web resources and services.